Retour au catalogue

THORAD DELTA 1 DEB

ActifSSO
NORAD 8561·DEBRIS·🇺🇸 United States

Lancé Nov 15, 1974 depuis Vandenberg Space Force Base

Loading…

Prochains Passages (prochaines 24 heures)

TLE

FraisSource: Space-Track

Époque: Sep 14, 2026, 14:40 UTC

1 08561U 74089CY  26257.61145538  .00000150  00000-0  10093-2 0  9994
2 08561 101.4991 299.9373 0063937 349.7405 162.6036 12.67712234386645

Suivez THORAD DELTA 1 DEB en temps réel avec AllMySat

Download on the App Store